This demonstration page uses our WeatherBlox Daily Observations layout. Learn more.

Left ArrowRight Arrow

34.16533, -84.80231

Hourly Observations for October 4, 2020

Temp ( °F °C ) Dew Point ( °F °C ) Humidity (%) Winds ( mph kmh ) Pressure ( in mb ) Visibility ( mi km ) Precip ( " mm )
12:53 am 00:53 Clear 53 11.7 48 8.9 83 83 Calm 30.17 1022 10 16 0.00 0.00
1:53 am 01:53 Clear 49 9.4 47 8.3 93 93 Calm 30.17 1022 10 16 0.00 0.00
2:53 am 02:53 Clear 52 11.1 48 8.9 86 86 Calm 30.16 1021 10 16 0.00 0.00
3:53 am 03:53 Clear 50 10 47 8.3 89 89 Calm 30.15 1021 10 16 0.00 0.00
4:53 am 04:53 Clear 49 9.4 46 7.8 90 90 Calm 30.15 1021 9 14 0.00 0.00
5:53 am 05:53 Clear 51 10.6 48 8.9 89 89 Calm 30.16 1021 10 16 0.00 0.00
6:53 am 06:53 Clear 49 9.4 46 7.8 90 90 Calm 30.17 1022 10 16 0.00 0.00
7:53 am 07:53 Sunny 47 8.3 44 6.7 90 90 Calm 30.19 1022 7 11 0.00 0.00
8:53 am 08:53 Sunny 52 11.1 49 9.4 89 89 Calm 30.19 1022 10 16 0.00 0.00
9:53 am 09:53 Sunny 58 14.4 50 10 75 75 E 5 7 30.19 1022 10 16 0.00 0.00
10:53 am 10:53 Sunny 63 17.2 51 10.6 65 65 SE 6 9 30.19 1023 10 16 0.00 0.00
11:53 am 11:53 Sunny 68 20 50 10 53 53 ESE 7 11 30.20 1023 10 16 0.00 0.00
12:53 pm 12:53 Sunny 70 21.1 50 10 49 49 Calm 30.18 1022 10 16 0.00 0.00
1:53 pm 13:53 Sunny 71 21.7 48 8.9 44 44 NE 5 7 30.16 1021 10 16 0.00 0.00
2:53 pm 14:53 Sunny 72 22.2 50 10 46 46 VRB 5 7 30.11 1020 10 16 0.00 0.00
3:53 pm 15:53 Sunny 72 22.2 49 9.4 44 44 Calm 30.09 1019 10 16 0.00 0.00
4:53 pm 16:53 Sunny 72 22.2 51 10.6 48 48 Calm 30.08 1019 10 16 0.00 0.00
5:53 pm 17:53 Sunny 71 21.7 52 11.1 51 51 Calm 30.09 1019 10 16 0.00 0.00
6:53 pm 18:53 Sunny 65 18.3 58 14.4 78 78 S 3 6 30.10 1019 10 16 0.00 0.00
7:53 pm 19:53 Clear 59 15 55 12.8 87 87 Calm 30.11 1020 10 16 0.00 0.00
8:53 pm 20:53 Clear 58 14.4 55 12.8 90 90 Calm 30.12 1020 10 16 0.00 0.00
9:53 pm 21:53 Clear 56 13.3 53 11.7 90 90 Calm 30.13 1020 10 16 0.00 0.00
10:53 pm 22:53 Clear 55 12.8 52 11.1 90 90 Calm 30.14 1021 10 16 0.00 0.00
11:53 pm 23:53 Clear 54 12.2 51 10.6 90 90 Calm 30.13 1020 10 16 0.00 0.00

Powered by AerisWeather